Location: Nitra
(0.0000°N, 18.0833°E)
Time: 08:41:57
(UTC+01:00)

Okean O Rocket - Pass Details

Date: 25 September 2022
Orbit: 621 x 644 km, 98.2° (Epoch: 28 November)

Event Time Altitude Azimuth Distance (km) Brightness Sun altitude
Exits shadow 20:00:48 39° 42° (NE) 928 2.1 -20.4°
Drops below altitude 10° 20:04:00 10° 5° (N) 1,979 4.1 -21.2°
Sets 20:06:14 0° 359° (N) 2,883 5.0 -21.7°
